contact:dominique.lefevre@mio.osupytheas.fr, maurice.libes@osupytheas.fr, didier.mallarino@osupytheas.fr
Project:EMSO http://www.emso-fr.org/EMSO-France
Depth: 2436.0 m
Title:EMSO Ligure Ouest : Data MII capteur MICROCAT
DateTime_Computer,Latitude,Longitude,Temperature,Conductivity,Pressure,DateTime_Instrument
DateTime_Computer,Latitude,Longitude,degC,S m-1,dbar,DateTime_Instrument
2019-06-03T00:00:55Z,42.805,6.029,13.2957,4.59966,2469.75,2019-6-03T02:01:11Z
2019-06-03T00:03:58Z,42.805,6.029,13.2959,4.59964,2469.69,2019-6-03T02:04:13Z
2019-06-03T00:07:01Z,42.805,6.029,13.2954,4.59968,2469.727,2019-6-03T02:07:16Z
2019-06-03T00:10:04Z,42.805,6.029,13.2958,4.59962,2469.727,2019-6-03T02:10:19Z
2019-06-03T00:13:07Z,42.805,6.029,13.2966,4.59968,2469.75,2019-6-03T02:13:22Z
2019-06-03T00:16:10Z,42.805,6.029,13.2956,4.59962,2469.75,2019-6-03T02:16:25Z
2019-06-03T00:19:13Z,42.805,6.029,13.2958,4.59966,2469.68,2019-6-03T02:19:28Z
2019-06-03T00:22:16Z,42.805,6.029,13.2963,4.59972,2469.704,2019-6-03T02:22:31Z
2019-06-03T00:25:19Z,42.805,6.029,13.2958,4.59970,2469.68,2019-6-03T02:25:34Z
2019-06-03T00:28:22Z,42.805,6.029,13.2961,4.59976,2469.704,2019-6-03T02:28:37Z
2019-06-03T00:31:25Z,42.805,6.029,13.2970,4.59988,2469.667,2019-6-03T02:31:40Z
2019-06-03T00:34:28Z,42.805,6.029,13.2953,4.59971,2469.704,2019-6-03T02:34:43Z
2019-06-03T00:37:31Z,42.805,6.029,13.2962,4.59969,2469.704,2019-6-03T02:37:46Z
2019-06-03T00:40:34Z,42.805,6.029,13.2957,4.59966,2469.713,2019-6-03T02:40:49Z
2019-06-03T00:43:37Z,42.805,6.029,13.2953,4.59964,2469.704,2019-6-03T02:43:52Z
2019-06-03T00:46:40Z,42.805,6.029,13.2958,4.59973,2469.704,2019-6-03T02:46:55Z
2019-06-03T00:49:42Z,42.805,6.029,13.2963,4.59983,2469.667,2019-6-03T02:49:58Z
2019-06-03T00:52:45Z,42.805,6.029,13.2963,4.59979,2469.704,2019-6-03T02:53:01Z
2019-06-03T00:55:48Z,42.805,6.029,13.2958,4.59987,2469.69,2019-6-03T02:56:04Z
2019-06-03T00:58:51Z,42.805,6.029,13.2963,4.59978,2469.704,2019-6-03T02:59:06Z
2019-06-03T01:01:54Z,42.805,6.029,13.2958,4.59967,2469.69,2019-6-03T03:02:09Z
2019-06-03T01:04:57Z,42.805,6.029,13.2964,4.59972,2469.69,2019-6-03T03:05:12Z
2019-06-03T01:08:00Z,42.805,6.029,13.2966,4.59979,2469.667,2019-6-03T03:08:15Z
2019-06-03T01:11:03Z,42.805,6.029,13.2957,4.59975,2469.667,2019-6-03T03:11:18Z
2019-06-03T01:14:06Z,42.805,6.029,13.2957,4.59962,2469.68,2019-6-03T03:14:21Z
2019-06-03T01:17:09Z,42.805,6.029,13.2959,4.59967,2469.713,2019-6-03T03:17:24Z
2019-06-03T01:20:12Z,42.805,6.029,13.2960,4.59963,2469.68,2019-6-03T03:20:27Z
2019-06-03T01:23:15Z,42.805,6.029,13.2959,4.59968,2469.69,2019-6-03T03:23:30Z
2019-06-03T01:26:18Z,42.805,6.029,13.2960,4.59967,2469.727,2019-6-03T03:26:33Z
2019-06-03T01:29:21Z,42.805,6.029,13.2957,4.59969,2469.69,2019-6-03T03:29:36Z
2019-06-03T01:32:24Z,42.805,6.029,13.2958,4.59968,2469.737,2019-6-03T03:32:39Z
2019-06-03T01:35:27Z,42.805,6.029,13.2961,4.59973,2469.68,2019-6-03T03:35:42Z
2019-06-03T01:38:30Z,42.805,6.029,13.2964,4.59972,2469.69,2019-6-03T03:38:45Z
2019-06-03T01:41:32Z,42.805,6.029,13.2964,4.59969,2469.68,2019-6-03T03:41:48Z
2019-06-03T01:44:35Z,42.805,6.029,13.2963,4.59982,2469.667,2019-6-03T03:44:51Z
2019-06-03T01:47:38Z,42.805,6.029,13.2955,4.59965,2469.667,2019-6-03T03:47:54Z
2019-06-03T01:50:41Z,42.805,6.029,13.2952,4.59963,2469.667,2019-6-03T03:50:57Z
2019-06-03T01:53:44Z,42.805,6.029,13.2965,4.59981,2469.713,2019-6-03T03:53:59Z
2019-06-03T01:56:47Z,42.805,6.029,13.2961,4.59968,2469.727,2019-6-03T03:57:02Z
2019-06-03T01:59:50Z,42.805,6.029,13.2961,4.59991,2469.68,2019-6-03T04:00:05Z
2019-06-03T02:02:53Z,42.805,6.029,13.2976,4.59980,2469.727,2019-6-03T04:03:08Z
2019-06-03T02:05:56Z,42.805,6.029,13.2964,4.59982,2469.69,2019-6-03T04:06:11Z
2019-06-03T02:08:59Z,42.805,6.029,13.2964,4.59983,2469.69,2019-6-03T04:09:14Z
2019-06-03T02:12:02Z,42.805,6.029,13.2971,4.59990,2469.713,2019-6-03T04:12:17Z
2019-06-03T02:15:05Z,42.805,6.029,13.2964,4.59980,2469.667,2019-6-03T04:15:20Z
2019-06-03T02:18:08Z,42.805,6.029,13.2963,4.60003,2469.667,2019-6-03T04:18:23Z
2019-06-03T02:21:11Z,42.805,6.029,13.2969,4.59987,2469.667,2019-6-03T04:21:26Z
2019-06-03T02:24:14Z,42.805,6.029,13.2961,4.59991,2469.667,2019-6-03T04:24:29Z
2019-06-03T02:27:17Z,42.805,6.029,13.2969,4.59986,2469.667,2019-6-03T04:27:32Z
2019-06-03T02:30:20Z,42.805,6.029,13.2964,4.59989,2469.657,2019-6-03T04:30:35Z
2019-06-03T02:33:23Z,42.805,6.029,13.2968,4.59999,2469.713,2019-6-03T04:33:38Z
2019-06-03T02:36:25Z,42.805,6.029,13.2968,4.59995,2469.68,2019-6-03T04:36:41Z
2019-06-03T02:39:28Z,42.805,6.029,13.2958,4.59967,2469.68,2019-6-03T04:39:44Z
2019-06-03T02:42:31Z,42.805,6.029,13.2961,4.59978,2469.69,2019-6-03T04:42:47Z
2019-06-03T02:45:34Z,42.805,6.029,13.2957,4.59967,2469.704,2019-6-03T04:45:50Z
2019-06-03T02:48:37Z,42.805,6.029,13.2957,4.59963,2469.69,2019-6-03T04:48:52Z
2019-06-03T02:51:40Z,42.805,6.029,13.2957,4.59963,2469.713,2019-6-03T04:51:55Z
2019-06-03T02:54:43Z,42.805,6.029,13.2958,4.59973,2469.704,2019-6-03T04:54:58Z
2019-06-03T02:57:46Z,42.805,6.029,13.2961,4.59977,2469.713,2019-6-03T04:58:01Z
2019-06-03T03:00:49Z,42.805,6.029,13.2961,4.59975,2469.737,2019-6-03T05:01:04Z
2019-06-03T03:03:52Z,42.805,6.029,13.2959,4.59968,2469.704,2019-6-03T05:04:07Z
2019-06-03T03:06:55Z,42.805,6.029,13.2967,4.59986,2469.69,2019-6-03T05:07:10Z
2019-06-03T03:09:58Z,42.805,6.029,13.2964,4.59984,2469.727,2019-6-03T05:10:13Z
2019-06-03T03:13:01Z,42.805,6.029,13.2961,4.59982,2469.69,2019-6-03T05:13:16Z
2019-06-03T03:16:04Z,42.805,6.029,13.2961,4.59978,2469.76,2019-6-03T05:16:19Z
2019-06-03T03:19:07Z,42.805,6.029,13.2960,4.59968,2469.727,2019-6-03T05:19:22Z
2019-06-03T03:22:10Z,42.805,6.029,13.2966,4.59994,2469.727,2019-6-03T05:22:25Z
2019-06-03T03:25:13Z,42.805,6.029,13.2967,4.59996,2469.704,2019-6-03T05:25:28Z
2019-06-03T03:28:16Z,42.805,6.029,13.2974,4.60007,2469.727,2019-6-03T05:28:31Z
2019-06-03T03:31:18Z,42.805,6.029,13.2962,4.59984,2469.713,2019-6-03T05:31:34Z
2019-06-03T03:34:21Z,42.805,6.029,13.2961,4.59978,2469.737,2019-6-03T05:34:37Z
2019-06-03T03:37:24Z,42.805,6.029,13.2958,4.59972,2469.737,2019-6-03T05:37:40Z
2019-06-03T03:40:27Z,42.805,6.029,13.2961,4.59968,2469.713,2019-6-03T05:40:42Z
2019-06-03T03:43:30Z,42.805,6.029,13.2965,4.59988,2469.737,2019-6-03T05:43:45Z
2019-06-03T03:46:33Z,42.805,6.029,13.2957,4.59968,2469.76,2019-6-03T05:46:48Z
2019-06-03T03:49:36Z,42.805,6.029,13.2968,4.59980,2469.727,2019-6-03T05:49:51Z
2019-06-03T03:52:39Z,42.805,6.029,13.2958,4.59981,2469.76,2019-6-03T05:52:54Z
2019-06-03T03:55:42Z,42.805,6.029,13.2981,4.59982,2469.773,2019-6-03T05:55:57Z
2019-06-03T03:58:45Z,42.805,6.029,13.2974,4.59999,2469.783,2019-6-03T05:59:00Z
2019-06-03T04:01:48Z,42.805,6.029,13.2958,4.59975,2469.737,2019-6-03T06:02:03Z
2019-06-03T04:04:51Z,42.805,6.029,13.2957,4.59970,2469.75,2019-6-03T06:05:06Z
2019-06-03T04:07:54Z,42.805,6.029,13.2970,4.59976,2469.773,2019-6-03T06:08:09Z
2019-06-03T04:10:57Z,42.805,6.029,13.2964,4.59996,2469.76,2019-6-03T06:11:12Z
2019-06-03T04:14:00Z,42.805,6.029,13.2975,4.59995,2469.737,2019-6-03T06:14:15Z
2019-06-03T04:17:03Z,42.805,6.029,13.2968,4.59978,2469.783,2019-6-03T06:17:18Z
2019-06-03T04:20:06Z,42.805,6.029,13.2971,4.59991,2469.821,2019-6-03T06:20:21Z
2019-06-03T04:23:09Z,42.805,6.029,13.2957,4.59983,2469.76,2019-6-03T06:23:24Z
2019-06-03T04:26:11Z,42.805,6.029,13.2961,4.59970,2469.783,2019-6-03T06:26:27Z
2019-06-03T04:29:14Z,42.805,6.029,13.2959,4.59969,2469.797,2019-6-03T06:29:30Z
2019-06-03T04:32:17Z,42.805,6.029,13.2960,4.59980,2469.76,2019-6-03T06:32:33Z
2019-06-03T04:35:20Z,42.805,6.029,13.2964,4.59987,2469.75,2019-6-03T06:35:35Z
2019-06-03T04:38:23Z,42.805,6.029,13.2967,4.59991,2469.783,2019-6-03T06:38:38Z
2019-06-03T04:41:26Z,42.805,6.029,13.2973,4.59995,2469.797,2019-6-03T06:41:41Z
2019-06-03T04:44:29Z,42.805,6.029,13.2964,4.59979,2469.806,2019-6-03T06:44:44Z
2019-06-03T04:47:32Z,42.805,6.029,13.2956,4.59971,2469.806,2019-6-03T06:47:47Z
2019-06-03T04:50:35Z,42.805,6.029,13.2961,4.59981,2469.797,2019-6-03T06:50:50Z
2019-06-03T04:53:38Z,42.805,6.029,13.2972,4.59993,2469.821,2019-6-03T06:53:53Z
2019-06-03T04:56:41Z,42.805,6.029,13.2968,4.59994,2469.76,2019-6-03T06:56:56Z
2019-06-03T04:59:44Z,42.805,6.029,13.2962,4.59997,2469.797,2019-6-03T06:59:59Z
2019-06-03T05:02:47Z,42.805,6.029,13.2968,4.60008,2469.83,2019-6-03T07:03:02Z
2019-06-03T05:05:50Z,42.805,6.029,13.2961,4.59983,2469.821,2019-6-03T07:06:05Z
2019-06-03T05:08:53Z,42.805,6.029,13.2959,4.60000,2469.844,2019-6-03T07:09:08Z
2019-06-03T05:11:56Z,42.805,6.029,13.2968,4.59990,2469.783,2019-6-03T07:12:11Z
2019-06-03T05:14:59Z,42.805,6.029,13.2979,4.60008,2469.844,2019-6-03T07:15:14Z
2019-06-03T05:18:01Z,42.805,6.029,13.2971,4.59987,2469.821,2019-6-03T07:18:17Z
2019-06-03T05:21:04Z,42.805,6.029,13.2956,4.59967,2469.821,2019-6-03T07:21:20Z
2019-06-03T05:24:07Z,42.805,6.029,13.2961,4.59988,2469.821,2019-6-03T07:24:23Z
2019-06-03T05:27:10Z,42.805,6.029,13.2982,4.59971,2469.83,2019-6-03T07:27:25Z
2019-06-03T05:30:13Z,42.805,6.029,13.2982,4.59993,2469.867,2019-6-03T07:30:28Z
2019-06-03T05:33:16Z,42.805,6.029,13.2980,4.60002,2469.844,2019-6-03T07:33:31Z
2019-06-03T05:36:19Z,42.805,6.029,13.2972,4.59998,2469.821,2019-6-03T07:36:34Z
2019-06-03T05:39:22Z,42.805,6.029,13.2965,4.60003,2469.83,2019-6-03T07:39:37Z
2019-06-03T05:42:25Z,42.805,6.029,13.2977,4.59985,2469.844,2019-6-03T07:42:40Z
2019-06-03T05:45:28Z,42.805,6.029,13.2985,4.59993,2469.844,2019-6-03T07:45:43Z
2019-06-03T05:48:31Z,42.805,6.029,13.2967,4.59990,2469.83,2019-6-03T07:48:46Z
2019-06-03T05:51:34Z,42.805,6.029,13.2960,4.59997,2469.867,2019-6-03T07:51:49Z
2019-06-03T05:54:37Z,42.805,6.029,13.2971,4.59988,2469.83,2019-6-03T07:54:52Z
2019-06-03T05:57:40Z,42.805,6.029,13.2962,4.59978,2469.83,2019-6-03T07:57:55Z
2019-06-03T06:00:43Z,42.805,6.029,13.2961,4.60012,2469.83,2019-6-03T08:00:58Z
2019-06-03T06:03:46Z,42.805,6.029,13.2957,4.59999,2469.821,2019-6-03T08:04:01Z
2019-06-03T06:06:49Z,42.805,6.029,13.2961,4.59986,2469.867,2019-6-03T08:07:04Z
2019-06-03T06:09:51Z,42.805,6.029,13.2977,4.60003,2469.867,2019-6-03T08:10:07Z
2019-06-03T06:12:54Z,42.805,6.029,13.2980,4.59983,2469.853,2019-6-03T08:13:10Z
2019-06-03T06:15:57Z,42.805,6.029,13.2968,4.59997,2469.853,2019-6-03T08:16:13Z
2019-06-03T06:19:00Z,42.805,6.029,13.2957,4.59973,2469.867,2019-6-03T08:19:16Z
2019-06-03T06:22:03Z,42.805,6.029,13.2961,4.59975,2469.844,2019-6-03T08:22:19Z
2019-06-03T06:25:06Z,42.805,6.029,13.2974,4.60002,2469.876,2019-6-03T08:25:21Z
2019-06-03T06:28:09Z,42.805,6.029,13.2979,4.60029,2469.844,2019-6-03T08:28:24Z
2019-06-03T06:31:12Z,42.805,6.029,13.2988,4.60009,2469.83,2019-6-03T08:31:27Z
2019-06-03T06:34:15Z,42.805,6.029,13.2983,4.59994,2469.844,2019-6-03T08:34:30Z
2019-06-03T06:37:18Z,42.805,6.029,13.2983,4.60013,2469.806,2019-6-03T08:37:33Z
2019-06-03T06:40:21Z,42.805,6.029,13.2966,4.59986,2469.853,2019-6-03T08:40:36Z
2019-06-03T06:43:24Z,42.805,6.029,13.2964,4.59973,2469.844,2019-6-03T08:43:39Z
2019-06-03T06:46:27Z,42.805,6.029,13.2967,4.59976,2469.914,2019-6-03T08:46:42Z
2019-06-03T06:49:30Z,42.805,6.029,13.2965,4.59976,2469.867,2019-6-03T08:49:45Z
2019-06-03T06:52:33Z,42.805,6.029,13.2968,4.59981,2469.844,2019-6-03T08:52:48Z
2019-06-03T06:55:36Z,42.805,6.029,13.2975,4.59993,2469.853,2019-6-03T08:55:51Z
2019-06-03T06:58:39Z,42.805,6.029,13.2965,4.59995,2469.853,2019-6-03T08:58:54Z
2019-06-03T07:01:42Z,42.805,6.029,13.2959,4.59988,2469.83,2019-6-03T09:01:57Z
2019-06-03T07:04:44Z,42.805,6.029,13.2967,4.60003,2469.867,2019-6-03T09:05:00Z
2019-06-03T07:07:47Z,42.805,6.029,13.2977,4.60006,2469.853,2019-6-03T09:08:03Z
2019-06-03T07:10:50Z,42.805,6.029,13.2979,4.60004,2469.89,2019-6-03T09:11:06Z
2019-06-03T07:13:53Z,42.805,6.029,13.2973,4.60002,2469.853,2019-6-03T09:14:09Z
2019-06-03T07:16:56Z,42.805,6.029,13.2991,4.60011,2469.853,2019-6-03T09:17:11Z
2019-06-03T07:19:59Z,42.805,6.029,13.2983,4.60004,2469.844,2019-6-03T09:20:14Z
2019-06-03T07:23:02Z,42.805,6.029,13.2977,4.60021,2469.806,2019-6-03T09:23:17Z
2019-06-03T07:26:05Z,42.805,6.029,13.2991,4.60020,2469.867,2019-6-03T09:26:20Z
2019-06-03T07:29:08Z,42.805,6.029,13.2983,4.60006,2469.806,2019-6-03T09:29:23Z
2019-06-03T07:32:11Z,42.805,6.029,13.2960,4.60000,2469.89,2019-6-03T09:32:26Z
2019-06-03T07:35:14Z,42.805,6.029,13.2979,4.60020,2469.867,2019-6-03T09:35:29Z
2019-06-03T07:38:17Z,42.805,6.029,13.2982,4.60029,2469.853,2019-6-03T09:38:32Z
2019-06-03T07:41:20Z,42.805,6.029,13.2986,4.60021,2469.844,2019-6-03T09:41:35Z
2019-06-03T07:44:23Z,42.805,6.029,13.2993,4.60025,2469.867,2019-6-03T09:44:38Z
2019-06-03T07:47:26Z,42.805,6.029,13.2965,4.59987,2469.867,2019-6-03T09:47:41Z
2019-06-03T07:50:29Z,42.805,6.029,13.2963,4.59976,2469.853,2019-6-03T09:50:44Z
2019-06-03T07:53:32Z,42.805,6.029,13.2974,4.59998,2469.853,2019-6-03T09:53:47Z
2019-06-03T07:56:35Z,42.805,6.029,13.2997,4.60020,2469.83,2019-6-03T09:56:50Z
2019-06-03T07:59:37Z,42.805,6.029,13.2996,4.60010,2469.867,2019-6-03T09:59:53Z
2019-06-03T08:02:40Z,42.805,6.029,13.2999,4.60024,2469.83,2019-6-03T10:02:56Z
2019-06-03T08:05:43Z,42.805,6.029,13.3010,4.60026,2469.844,2019-6-03T10:05:59Z
2019-06-03T08:08:46Z,42.805,6.029,13.2993,4.60019,2469.844,2019-6-03T10:09:02Z
2019-06-03T08:11:49Z,42.805,6.029,13.3008,4.60025,2469.83,2019-6-03T10:12:04Z
2019-06-03T08:14:52Z,42.805,6.029,13.2970,4.60002,2469.844,2019-6-03T10:15:07Z
2019-06-03T08:17:55Z,42.805,6.029,13.2976,4.60014,2469.83,2019-6-03T10:18:10Z
2019-06-03T08:20:58Z,42.805,6.029,13.3005,4.60049,2469.83,2019-6-03T10:21:13Z
2019-06-03T08:24:01Z,42.805,6.029,13.2993,4.60012,2469.821,2019-6-03T10:24:16Z
2019-06-03T08:27:04Z,42.805,6.029,13.2973,4.60022,2469.844,2019-6-03T10:27:19Z
2019-06-03T08:30:07Z,42.805,6.029,13.2981,4.60028,2469.806,2019-6-03T10:30:22Z
2019-06-03T08:33:10Z,42.805,6.029,13.2983,4.60011,2469.83,2019-6-03T10:33:25Z
2019-06-03T08:36:13Z,42.805,6.029,13.2984,4.60023,2469.83,2019-6-03T10:36:28Z
2019-06-03T08:39:16Z,42.805,6.029,13.2983,4.60023,2469.821,2019-6-03T10:39:31Z
2019-06-03T08:42:19Z,42.805,6.029,13.3004,4.60015,2469.83,2019-6-03T10:42:34Z
2019-06-03T08:45:22Z,42.805,6.029,13.2982,4.60018,2469.821,2019-6-03T10:45:37Z
2019-06-03T08:48:25Z,42.805,6.029,13.2971,4.60001,2469.821,2019-6-03T10:48:40Z
2019-06-03T08:51:28Z,42.805,6.029,13.2988,4.60011,2469.806,2019-6-03T10:51:43Z
2019-06-03T08:54:31Z,42.805,6.029,13.2967,4.59991,2469.806,2019-6-03T10:54:46Z
2019-06-03T08:57:34Z,42.805,6.029,13.2971,4.60009,2469.797,2019-6-03T10:57:49Z
2019-06-03T09:00:36Z,42.805,6.029,13.2985,4.59986,2469.797,2019-6-03T11:00:52Z
2019-06-03T09:03:39Z,42.805,6.029,13.2993,4.60038,2469.821,2019-6-03T11:03:55Z
2019-06-03T09:06:42Z,42.805,6.029,13.2991,4.60019,2469.783,2019-6-03T11:06:58Z
2019-06-03T09:09:45Z,42.805,6.029,13.2982,4.60033,2469.806,2019-6-03T11:10:01Z
2019-06-03T09:12:48Z,42.805,6.029,13.2998,4.60009,2469.797,2019-6-03T11:13:03Z
2019-06-03T09:15:51Z,42.805,6.029,13.2974,4.60024,2469.797,2019-6-03T11:16:06Z
2019-06-03T09:18:54Z,42.805,6.029,13.2982,4.60037,2469.76,2019-6-03T11:19:09Z
2019-06-03T09:21:57Z,42.805,6.029,13.2990,4.60024,2469.797,2019-6-03T11:22:12Z
2019-06-03T09:25:00Z,42.805,6.029,13.2990,4.60011,2469.76,2019-6-03T11:25:15Z
2019-06-03T09:28:03Z,42.805,6.029,13.3017,4.60027,2469.797,2019-6-03T11:28:18Z
2019-06-03T09:31:06Z,42.805,6.029,13.2984,4.59972,2469.783,2019-6-03T11:31:21Z
2019-06-03T09:34:09Z,42.805,6.029,13.2982,4.59991,2469.797,2019-6-03T11:34:24Z
2019-06-03T09:37:12Z,42.805,6.029,13.2974,4.59999,2469.783,2019-6-03T11:37:27Z
2019-06-03T09:40:15Z,42.805,6.029,13.2976,4.59995,2469.773,2019-6-03T11:40:30Z
2019-06-03T09:43:18Z,42.805,6.029,13.2993,4.59984,2469.773,2019-6-03T11:43:33Z
2019-06-03T09:46:21Z,42.805,6.029,13.2978,4.60036,2469.75,2019-6-03T11:46:36Z
2019-06-03T09:49:24Z,42.805,6.029,13.3005,4.60033,2469.773,2019-6-03T11:49:39Z
2019-06-03T09:52:27Z,42.805,6.029,13.3009,4.60007,2469.773,2019-6-03T11:52:42Z
2019-06-03T09:55:30Z,42.805,6.029,13.3006,4.59986,2469.76,2019-6-03T11:55:45Z
2019-06-03T09:58:33Z,42.805,6.029,13.2968,4.60021,2469.713,2019-6-03T11:58:48Z
2019-06-03T10:01:35Z,42.805,6.029,13.2984,4.59996,2469.737,2019-6-03T12:01:51Z
2019-06-03T10:04:38Z,42.805,6.029,13.3006,4.60003,2469.737,2019-6-03T12:04:54Z
2019-06-03T10:07:41Z,42.805,6.029,13.3023,4.60005,2469.737,2019-6-03T12:07:57Z
2019-06-03T10:10:44Z,42.805,6.029,13.3002,4.60026,2469.737,2019-6-03T12:10:59Z
2019-06-03T10:13:47Z,42.805,6.029,13.2995,4.60003,2469.727,2019-6-03T12:14:02Z
2019-06-03T10:16:50Z,42.805,6.029,13.2996,4.60026,2469.737,2019-6-03T12:17:05Z
2019-06-03T10:19:53Z,42.805,6.029,13.3009,4.59997,2469.773,2019-6-03T12:20:08Z
2019-06-03T10:22:56Z,42.805,6.029,13.3012,4.60037,2469.727,2019-6-03T12:23:11Z
2019-06-03T10:25:59Z,42.805,6.029,13.3033,4.60070,2469.75,2019-6-03T12:26:14Z
2019-06-03T10:29:02Z,42.805,6.029,13.3019,4.60033,2469.727,2019-6-03T12:29:17Z
2019-06-03T10:32:05Z,42.805,6.029,13.3034,4.60055,2469.713,2019-6-03T12:32:20Z
2019-06-03T10:35:08Z,42.805,6.029,13.3021,4.60025,2469.69,2019-6-03T12:35:23Z
2019-06-03T10:38:11Z,42.805,6.029,13.3026,4.60021,2469.75,2019-6-03T12:38:26Z
2019-06-03T10:41:14Z,42.805,6.029,13.3014,4.60037,2469.713,2019-6-03T12:41:29Z
2019-06-03T10:44:17Z,42.805,6.029,13.3014,4.60028,2469.75,2019-6-03T12:44:32Z
2019-06-03T10:47:20Z,42.805,6.029,13.3014,4.60041,2469.75,2019-6-03T12:47:35Z
2019-06-03T10:50:23Z,42.805,6.029,13.3006,4.60011,2469.727,2019-6-03T12:50:38Z
2019-06-03T10:53:26Z,42.805,6.029,13.3009,4.60024,2469.75,2019-6-03T12:53:41Z
2019-06-03T10:56:29Z,42.805,6.029,13.2996,4.60059,2469.704,2019-6-03T12:56:44Z
2019-06-03T10:59:31Z,42.805,6.029,13.2999,4.60004,2469.713,2019-6-03T12:59:47Z
2019-06-03T11:02:34Z,42.805,6.029,13.3006,4.60062,2469.704,2019-6-03T13:02:50Z
2019-06-03T11:05:37Z,42.805,6.029,13.3017,4.59994,2469.75,2019-6-03T13:05:53Z
2019-06-03T11:08:40Z,42.805,6.029,13.3026,4.60003,2469.713,2019-6-03T13:08:56Z
2019-06-03T11:11:43Z,42.805,6.029,13.2999,4.60010,2469.667,2019-6-03T13:11:58Z
2019-06-03T11:14:46Z,42.805,6.029,13.2979,4.60003,2469.727,2019-6-03T13:15:01Z
2019-06-03T11:17:49Z,42.805,6.029,13.3005,4.60033,2469.75,2019-6-03T13:18:04Z
2019-06-03T11:20:52Z,42.805,6.029,13.2997,4.60027,2469.75,2019-6-03T13:21:07Z
2019-06-03T11:23:55Z,42.805,6.029,13.3007,4.60005,2469.704,2019-6-03T13:24:10Z
2019-06-03T11:26:58Z,42.805,6.029,13.3015,4.60032,2469.727,2019-6-03T13:27:13Z
2019-06-03T11:30:01Z,42.805,6.029,13.3016,4.60049,2469.69,2019-6-03T13:30:16Z
2019-06-03T11:33:04Z,42.805,6.029,13.3012,4.60040,2469.704,2019-6-03T13:33:19Z
2019-06-03T11:36:07Z,42.805,6.029,13.3023,4.60025,2469.69,2019-6-03T13:36:22Z
2019-06-03T11:39:10Z,42.805,6.029,13.2998,4.60044,2469.68,2019-6-03T13:39:25Z
2019-06-03T11:42:13Z,42.805,6.029,13.3008,4.60010,2469.68,2019-6-03T13:42:28Z
2019-06-03T11:45:16Z,42.805,6.029,13.3019,4.60036,2469.68,2019-6-03T13:45:31Z
2019-06-03T11:48:19Z,42.805,6.029,13.2989,4.60062,2469.704,2019-6-03T13:48:34Z
2019-06-03T11:51:22Z,42.805,6.029,13.2990,4.60065,2469.704,2019-6-03T13:51:37Z
2019-06-03T11:54:25Z,42.805,6.029,13.2991,4.60015,2469.704,2019-6-03T13:54:40Z
2019-06-03T11:57:28Z,42.805,6.029,13.2984,4.60034,2469.667,2019-6-03T13:57:43Z
2019-06-03T12:00:30Z,42.805,6.029,13.3004,4.59998,2469.667,2019-6-03T14:00:46Z
2019-06-03T12:03:33Z,42.805,6.029,13.3004,4.60030,2469.667,2019-6-03T14:03:49Z
2019-06-03T12:06:36Z,42.805,6.029,13.2973,4.60041,2469.667,2019-6-03T14:06:52Z
2019-06-03T12:09:39Z,42.805,6.029,13.2977,4.60035,2469.68,2019-6-03T14:09:55Z
2019-06-03T12:12:42Z,42.805,6.029,13.2976,4.60025,2469.68,2019-6-03T14:12:57Z
2019-06-03T12:15:45Z,42.805,6.029,13.2960,4.60032,2469.657,2019-6-03T14:16:00Z
2019-06-03T12:18:48Z,42.805,6.029,13.2964,4.60012,2469.667,2019-6-03T14:19:03Z
2019-06-03T12:21:51Z,42.805,6.029,13.2964,4.59997,2469.68,2019-6-03T14:22:06Z
2019-06-03T12:24:54Z,42.805,6.029,13.2967,4.60006,2469.68,2019-6-03T14:25:09Z
2019-06-03T12:27:57Z,42.805,6.029,13.2964,4.60023,2469.667,2019-6-03T14:28:12Z
2019-06-03T12:31:00Z,42.805,6.029,13.2972,4.60009,2469.657,2019-6-03T14:31:15Z
2019-06-03T12:34:03Z,42.805,6.029,13.2970,4.60029,2469.657,2019-6-03T14:34:18Z
2019-06-03T12:37:06Z,42.805,6.029,13.2959,4.60001,2469.68,2019-6-03T14:37:21Z
2019-06-03T12:40:09Z,42.805,6.029,13.2973,4.60021,2469.657,2019-6-03T14:40:24Z
2019-06-03T12:43:12Z,42.805,6.029,13.2988,4.59997,2469.68,2019-6-03T14:43:27Z
2019-06-03T12:46:15Z,42.805,6.029,13.2989,4.60010,2469.68,2019-6-03T14:46:30Z
2019-06-03T12:49:18Z,42.805,6.029,13.2990,4.60000,2469.643,2019-6-03T14:49:33Z
2019-06-03T12:52:21Z,42.805,6.029,13.2964,4.60023,2469.657,2019-6-03T14:52:36Z
2019-06-03T12:55:24Z,42.805,6.029,13.2983,4.60057,2469.694,2019-6-03T14:55:39Z
2019-06-03T12:58:26Z,42.805,6.029,13.2987,4.60037,2469.643,2019-6-03T14:58:42Z
2019-06-03T13:01:29Z,42.805,6.029,13.2970,4.60025,2469.657,2019-6-03T15:01:45Z
2019-06-03T13:04:32Z,42.805,6.029,13.2970,4.60016,2469.68,2019-6-03T15:04:48Z
2019-06-03T13:07:35Z,42.805,6.029,13.2968,4.60003,2469.68,2019-6-03T15:07:51Z
2019-06-03T13:10:38Z,42.805,6.029,13.2974,4.60031,2469.657,2019-6-03T15:10:53Z
2019-06-03T13:13:41Z,42.805,6.029,13.2958,4.60035,2469.62,2019-6-03T15:13:56Z
2019-06-03T13:16:44Z,42.805,6.029,13.2961,4.60015,2469.643,2019-6-03T15:16:59Z
2019-06-03T13:19:47Z,42.805,6.029,13.2975,4.59990,2469.657,2019-6-03T15:20:02Z
2019-06-03T13:22:50Z,42.805,6.029,13.2963,4.59981,2469.634,2019-6-03T15:23:05Z
2019-06-03T13:25:53Z,42.805,6.029,13.2963,4.60008,2469.657,2019-6-03T15:26:08Z
2019-06-03T13:28:56Z,42.805,6.029,13.2967,4.59992,2469.657,2019-6-03T15:29:11Z
2019-06-03T13:31:59Z,42.805,6.029,13.2961,4.60026,2469.597,2019-6-03T15:32:14Z
2019-06-03T13:35:02Z,42.805,6.029,13.2961,4.59991,2469.68,2019-6-03T15:35:17Z
2019-06-03T13:38:05Z,42.805,6.029,13.2958,4.60018,2469.643,2019-6-03T15:38:20Z
2019-06-03T13:41:08Z,42.805,6.029,13.2966,4.60021,2469.643,2019-6-03T15:41:23Z
2019-06-03T13:44:11Z,42.805,6.029,13.2959,4.59998,2469.643,2019-6-03T15:44:26Z
2019-06-03T13:47:14Z,42.805,6.029,13.2966,4.59996,2469.68,2019-6-03T15:47:29Z
2019-06-03T13:50:17Z,42.805,6.029,13.2968,4.59996,2469.643,2019-6-03T15:50:32Z
2019-06-03T13:53:20Z,42.805,6.029,13.2962,4.60010,2469.657,2019-6-03T15:53:35Z
2019-06-03T13:56:22Z,42.805,6.029,13.2965,4.59994,2469.657,2019-6-03T15:56:38Z
2019-06-03T13:59:25Z,42.805,6.029,13.2967,4.60009,2469.62,2019-6-03T15:59:41Z
2019-06-03T14:02:28Z,42.805,6.029,13.2971,4.59999,2469.61,2019-6-03T16:02:44Z
2019-06-03T14:05:31Z,42.805,6.029,13.2958,4.59999,2469.634,2019-6-03T16:05:47Z
2019-06-03T14:08:34Z,42.805,6.029,13.2965,4.60001,2469.62,2019-6-03T16:08:50Z
2019-06-03T14:11:37Z,42.805,6.029,13.2982,4.60029,2469.657,2019-6-03T16:11:52Z
2019-06-03T14:14:40Z,42.805,6.029,13.2964,4.60009,2469.657,2019-6-03T16:14:55Z
2019-06-03T14:17:43Z,42.805,6.029,13.2971,4.59996,2469.68,2019-6-03T16:17:58Z
2019-06-03T14:20:46Z,42.805,6.029,13.2974,4.60002,2469.62,2019-6-03T16:21:01Z
2019-06-03T14:23:49Z,42.805,6.029,13.2969,4.60004,2469.667,2019-6-03T16:24:04Z
2019-06-03T14:26:52Z,42.805,6.029,13.2969,4.59993,2469.643,2019-6-03T16:27:07Z
2019-06-03T14:29:55Z,42.805,6.029,13.2957,4.59986,2469.657,2019-6-03T16:30:10Z
2019-06-03T14:32:58Z,42.805,6.029,13.2975,4.59986,2469.667,2019-6-03T16:33:13Z
2019-06-03T14:36:01Z,42.805,6.029,13.2964,4.59999,2469.667,2019-6-03T16:36:16Z
2019-06-03T14:39:04Z,42.805,6.029,13.2962,4.59981,2469.68,2019-6-03T16:39:19Z
2019-06-03T14:42:07Z,42.805,6.029,13.2962,4.59988,2469.657,2019-6-03T16:42:22Z
2019-06-03T14:45:10Z,42.805,6.029,13.2964,4.59978,2469.68,2019-6-03T16:45:25Z
2019-06-03T14:48:13Z,42.805,6.029,13.2975,4.59978,2469.657,2019-6-03T16:48:28Z
2019-06-03T14:51:16Z,42.805,6.029,13.2964,4.60022,2469.68,2019-6-03T16:51:31Z
2019-06-03T14:54:19Z,42.805,6.029,13.2957,4.59988,2469.69,2019-6-03T16:54:34Z
2019-06-03T14:57:21Z,42.805,6.029,13.2959,4.59992,2469.667,2019-6-03T16:57:37Z
2019-06-03T15:00:24Z,42.805,6.029,13.2968,4.60001,2469.657,2019-6-03T17:00:40Z
2019-06-03T15:03:27Z,42.805,6.029,13.2964,4.59998,2469.68,2019-6-03T17:03:43Z
2019-06-03T15:06:30Z,42.805,6.029,13.2967,4.60024,2469.69,2019-6-03T17:06:46Z
2019-06-03T15:09:33Z,42.805,6.029,13.2988,4.60009,2469.667,2019-6-03T17:09:48Z
2019-06-03T15:12:36Z,42.805,6.029,13.2963,4.60016,2469.69,2019-6-03T17:12:51Z